[[{"header":{"parameterUnit":"m.s-1","parameterCategory":1,"la1":30.2991,"la2":30.254,"lo1":-89.0895,"lo2":-89.0444,"dy":0.0017,"dx":0.0017,"nx":28,"ny":28,"refTime":"2024-10-07T09:00:00:Z","depth":0,"parameterNumber":2,"parameterNumberName":"U-component_of_WINDS"},"data":[0,0,0,0,0,0,0,0,0,0,0,0,0,0,0,0,0,0,0,0,0,0,0,0,0,0,0,0,0,0,0,0,0,0,0,0,0,0,0,0,0,0,0,0,0,0,0,0,0,0,0,0,0,0,0,0,0,0,-0.7701,-0.77,0,-0.7637,-0.7637,-0.7636,-0.7617,-0.7617,-0.7618,-0.7618,-0.7551,-0.7549,-0.7547,0,0,0,0,0,0,0,0,0,0,0,0,0,-0.7803,-0.7802,-0.7701,-0.77,-0.7699,-0.7637,-0.7637,-0.7636,-0.7617,-0.7617,-0.7618,-0.7618,-0.7552,-0.7549,-0.7547,0,0,0,0,0,0,0,0,0,0,0,0,0,-0.7751,-0.7801,-0.7701,-0.7683,-0.768,-0.7638,-0.7636,-0.7635,-0.7617,-0.7617,-0.7618,-0.7618,-0.7553,-0.755,-0.7546,-0.7517,0,0,-0.7537,-0.7536,0,0,0,0,0,0,0,0,-0.7754,-0.7748,-0.7686,-0.7684,-0.7681,-0.7636,-0.7648,-0.7596,-0.7617,-0.7641,-0.7618,-0.7618,-0.7579,-0.7573,-0.756,-0.7514,-0.7511,-0.7537,-0.7535,-0.7533,-0.7532,0,0,0,0,0,0,0,-0.7758,-0.775,-0.7676,-0.7685,-0.7682,-0.7676,-0.767,-0.7638,-0.7608,-0.7639,-0.7637,-0.763,-0.7577,-0.7563,-0.7559,-0.751,-0.7537,-0.7534,-0.7532,-0.7531,-0.7434,-0.7434,0,0,0,0,0,0,-0.7765,-0.7753,-0.7678,-0.7674,-0.772,-0.7674,-0.7667,-0.765,-0.7608,-0.7602,-0.763,-0.7629,-0.7569,-0.7562,-0.7556,-0.7518,-0.7533,-0.753,-0.7529,-0.7435,-0.7434,-0.7434,0,0,0,0,0,0,-0.7767,-0.7758,-0.768,-0.7713,-0.7703,-0.7672,-0.7653,-0.7648,-0.7634,-0.7601,-0.7595,-0.7621,-0.7569,-0.7561,-0.7527,-0.7515,-0.7529,-0.7526,-0.7436,-0.7435,-0.7434,-0.7441,0,0,0,0,0,0,-0.777,-0.7759,-0.7749,-0.7713,-0.7701,-0.7653,-0.7652,-0.7647,-0.7629,-0.7628,-0.7592,-0.7586,-0.7568,-0.7531,-0.7524,-0.7511,-0.7524,-0.7437,-0.7435,-0.7434,-0.7442,-0.7441,-0.744,0,0,0,0,0,-0.7774,-0.7753,-0.7748,-0.7739,-0.7687,-0.7652,-0.7645,-0.7626,-0.7628,-0.7616,-0.7595,-0.7587,-0.7518,-0.7528,-0.7519,-0.7506,-0.7437,-0.7436,-0.7434,-0.7443,-0.7441,-0.744,0,0,0,0,0,0,-0.7788,-0.7748,-0.7742,-0.771,-0.7684,-0.7649,-0.7634,-0.7625,-0.7598,-0.7598,-0.7575,-0.7567,-0.7534,-0.7517,-0.7529,-0.7474,-0.7477,-0.7474,-0.7487,-0.7485,-0.7484,-0.7488,-0.7521,0,0,0,0,0,-0.7788,-0.7763,-0.7729,-0.7704,-0.7691,-0.7665,-0.7649,-0.7636,-0.7609,-0.7598,-0.7574,-0.7547,-0.7519,-0.7501,-0.7474,-0.744,-0.743,-0.7426,-0.7425,-0.7424,-0.7421,-0.74,-0.7397,-0.7429,-0.7429,-0.7429,0,0,-0.7786,-0.7761,-0.7747,-0.7706,-0.7685,-0.7659,-0.7656,-0.7629,-0.7609,-0.7593,-0.756,-0.7541,-0.751,-0.7475,-0.7459,-0.7459,-0.741,-0.7422,-0.7421,-0.7419,-0.7398,-0.7395,-0.7392,-0.7428,-0.7428,-0.7428,0,0,-0.7769,-0.7749,-0.7724,-0.7703,-0.7671,-0.7654,-0.7648,-0.7613,-0.76,-0.7566,-0.7553,-0.7529,-0.7482,-0.7459,-0.7442,-0.7415,-0.7407,-0.7407,-0.7401,-0.738,-0.7378,-0.7375,-0.7365,-0.7361,-0.7404,-0.7405,-0.7405,0,-0.7771,-0.7732,-0.7713,-0.7686,-0.7668,-0.7653,-0.7627,-0.7607,-0.7568,-0.7555,-0.7556,-0.7496,-0.7474,-0.7433,-0.7426,-0.7413,-0.7404,-0.7411,-0.738,-0.7377,-0.7375,-0.7364,-0.736,-0.7405,-0.7405,-0.7405,-0.7405,0,-0.7735,-0.7708,-0.7692,-0.7655,-0.7635,-0.7609,-0.7584,-0.7566,-0.7555,-0.7536,-0.7501,-0.7473,-0.7439,-0.7429,-0.7418,-0.7386,-0.7387,-0.7385,-0.7387,-0.7372,-0.7362,-0.7358,-0.7405,-0.7405,-0.7405,-0.7405,0,0,-0.7726,-0.7677,-0.7672,-0.7654,-0.7617,-0.7595,-0.7568,-0.7535,-0.7519,-0.7492,-0.7468,-0.7428,-0.7424,-0.7404,-0.7391,-0.7373,-0.7352,-0.7372,-0.7371,-0.7368,-0.7313,-0.7314,-0.731,-0.7346,-0.7345,-0.7344,-0.7315,0,-0.7704,-0.7655,-0.7636,-0.7596,-0.757,-0.7554,-0.753,-0.7505,-0.7486,-0.7461,-0.7441,-0.7412,-0.7411,-0.7399,-0.7381,-0.7358,-0.734,-0.736,-0.7322,-0.732,-0.7329,-0.7305,-0.7306,-0.728,-0.7311,-0.731,-0.731,0,-0.7671,-0.7644,-0.7601,-0.7566,-0.7555,-0.7534,-0.7501,-0.7477,-0.7447,-0.7435,-0.7412,-0.7399,-0.7369,-0.7374,-0.733,-0.7344,-0.7328,-0.7314,-0.7312,-0.7307,-0.7314,-0.7297,-0.7271,-0.7267,-0.7303,-0.7304,-0.7304,0,-0.7667,-0.762,-0.7588,-0.7573,-0.7532,-0.7517,-0.7499,-0.7469,-0.745,-0.7421,-0.7408,-0.7377,-0.7359,-0.7334,-0.7312,-0.7318,-0.727,-0.7274,-0.7258,-0.7258,-0.7248,-0.7249,-0.7217,-0.7239,-0.7239,-0.7239,-0.7239,0,-0.7644,-0.7618,-0.7585,-0.7565,-0.7535,-0.7513,-0.7484,-0.7464,-0.7438,-0.7413,-0.7398,-0.7375,-0.7348,-0.7321,-0.7304,-0.7269,-0.7262,-0.725,-0.7246,-0.7251,-0.7252,-0.7239,-0.7239,-0.7238,-0.7238,-0.7239,-0.7239,0,-0.7634,-0.7611,-0.7575,-0.7538,-0.7529,-0.7508,-0.7476,-0.7456,-0.7437,-0.7405,-0.7397,-0.7367,-0.7334,-0.731,-0.7268,-0.7256,-0.7219,-0.7215,-0.7229,-0.7226,-0.7211,-0.7212,-0.7169,-0.7161,-0.719,-0.719,-0.7189,0,-0.762,-0.7599,-0.7561,-0.7543,-0.7525,-0.7498,-0.7478,-0.7455,-0.7435,-0.7398,-0.7381,-0.7348,-0.7319,-0.7268,-0.7241,-0.7209,-0.7203,-0.719,-0.7198,-0.7203,-0.7201,-0.7202,-0.7199,-0.7188,-0.7188,-0.7188,-0.7188,0,-0.7597,-0.7586,-0.7559,-0.7527,-0.7504,-0.7477,-0.7451,-0.7437,-0.7409,-0.7387,-0.7353,-0.7331,-0.7288,-0.7254,-0.7218,-0.7199,-0.7188,-0.7186,-0.718,-0.7185,-0.7193,-0.7187,-0.7224,-0.7187,-0.7187,-0.7187,-0.7187,-0.7187,-0.7583,-0.7564,-0.7533,-0.7503,-0.748,-0.7455,-0.7434,-0.7412,-0.7384,-0.7347,-0.7335,-0.73,-0.7268,-0.7219,-0.7199,-0.717,-0.7171,-0.7163,-0.716,-0.7159,-0.7158,-0.7199,-0.7164,-0.7164,-0.7164,-0.7164,-0.7164,0,-0.7558,-0.7538,-0.751,-0.7473,-0.7448,-0.7441,-0.7411,-0.739,-0.736,-0.7332,-0.7304,-0.7265,-0.7231,-0.7202,-0.7168,-0.715,-0.7144,-0.7142,-0.7142,-0.7137,-0.7161,-0.7168,-0.7147,-0.7147,-0.7147,-0.7147,-0.7147,-0.7147,-0.7543,-0.7509,-0.7494,-0.7449,-0.7428,-0.7394,-0.7377,-0.7353,-0.733,-0.7287,-0.7259,-0.7241,-0.7212,-0.7174,-0.7143,-0.7135,-0.7122,-0.7121,-0.7112,-0.7134,-0.7136,-0.7138,-0.7145,-0.7119,-0.7118,-0.709,-0.709,-0.709]},{"header":{"parameterUnit":"m.s-1","parameterCategory":1,"la1":30.2991,"la2":30.254,"lo1":-89.0895,"lo2":-89.0444,"dy":0.0017,"dx":0.0017,"nx":28,"ny":28,"refTime":"2024-10-07T09:00:00:Z","depth":0,"parameterNumber":3,"parameterNumberName":"V-component_of_WINDS"},"data":[0,0,0,0,0,0,0,0,0,0,0,0,0,0,0,0,0,0,0,0,0,0,0,0,0,0,0,0,0,0,0,0,0,0,0,0,0,0,0,0,0,0,0,0,0,0,0,0,0,0,0,0,0,0,0,0,0,0,-2.8362,-2.8362,0,-2.836,-2.836,-2.836,-2.8363,-2.8363,-2.8363,-2.8364,-2.8357,-2.8357,-2.8357,0,0,0,0,0,0,0,0,0,0,0,0,0,-2.8366,-2.8366,-2.8362,-2.8362,-2.8362,-2.836,-2.836,-2.836,-2.8363,-2.8363,-2.8363,-2.8364,-2.8357,-2.8357,-2.8357,0,0,0,0,0,0,0,0,0,0,0,0,0,-2.8364,-2.8366,-2.8362,-2.8363,-2.8363,-2.836,-2.836,-2.836,-2.8363,-2.8363,-2.8363,-2.8364,-2.8357,-2.8357,-2.8357,-2.835,0,0,-2.8355,-2.8355,0,0,0,0,0,0,0,0,-2.8364,-2.8364,-2.8363,-2.8363,-2.8363,-2.8362,-2.8359,-2.8357,-2.8363,-2.8363,-2.8364,-2.8364,-2.8358,-2.8358,-2.8357,-2.835,-2.835,-2.8355,-2.8355,-2.8355,-2.8355,0,0,0,0,0,0,0,-2.8364,-2.8364,-2.8361,-2.8363,-2.8363,-2.8363,-2.8363,-2.8359,-2.836,-2.8363,-2.8363,-2.8363,-2.8358,-2.8357,-2.8357,-2.835,-2.8355,-2.8355,-2.8355,-2.8355,-2.8341,-2.8341,0,0,0,0,0,0,-2.8365,-2.8364,-2.8361,-2.8361,-2.8364,-2.8363,-2.8363,-2.8362,-2.836,-2.836,-2.8363,-2.8363,-2.8358,-2.8357,-2.8357,-2.8351,-2.8355,-2.8354,-2.8354,-2.8341,-2.8341,-2.8341,0,0,0,0,0,0,-2.8365,-2.8364,-2.8361,-2.8363,-2.8362,-2.8363,-2.8362,-2.8362,-2.8361,-2.836,-2.836,-2.8362,-2.8358,-2.8357,-2.8353,-2.8351,-2.8354,-2.8354,-2.8341,-2.8341,-2.8341,-2.834,0,0,0,0,0,0,-2.8365,-2.8364,-2.8362,-2.8363,-2.8362,-2.8358,-2.8362,-2.8362,-2.8361,-2.8361,-2.8359,-2.8359,-2.8358,-2.8354,-2.8353,-2.8351,-2.8354,-2.8341,-2.8341,-2.8341,-2.834,-2.8339,-2.8339,0,0,0,0,0,-2.8365,-2.836,-2.8362,-2.8362,-2.836,-2.8358,-2.8358,-2.8359,-2.8361,-2.8359,-2.8358,-2.8359,-2.8352,-2.8353,-2.8352,-2.835,-2.8341,-2.8341,-2.8341,-2.834,-2.834,-2.8339,0,0,0,0,0,0,-2.8357,-2.836,-2.8362,-2.8358,-2.8358,-2.8359,-2.8356,-2.8358,-2.8356,-2.8356,-2.8356,-2.8356,-2.8352,-2.835,-2.8352,-2.8345,-2.8347,-2.8346,-2.8347,-2.8346,-2.8346,-2.8346,-2.8353,0,0,0,0,0,-2.8355,-2.8355,-2.8357,-2.8353,-2.8353,-2.8355,-2.8354,-2.8355,-2.8354,-2.8354,-2.8353,-2.8351,-2.8349,-2.8347,-2.8345,-2.834,-2.834,-2.8338,-2.8338,-2.8337,-2.8337,-2.8337,-2.8336,-2.834,-2.834,-2.834,0,0,-2.835,-2.8352,-2.8351,-2.8351,-2.8352,-2.8351,-2.8354,-2.8352,-2.8352,-2.8353,-2.835,-2.8349,-2.8348,-2.8344,-2.8342,-2.8343,-2.8336,-2.8337,-2.8337,-2.8337,-2.8336,-2.8336,-2.8336,-2.834,-2.834,-2.834,0,0,-2.8342,-2.8343,-2.8341,-2.8342,-2.8343,-2.8345,-2.8345,-2.8346,-2.8346,-2.8344,-2.8346,-2.8344,-2.834,-2.834,-2.8339,-2.8334,-2.8335,-2.8333,-2.8331,-2.8331,-2.833,-2.833,-2.833,-2.833,-2.8333,-2.8333,-2.8333,0,-2.8336,-2.8335,-2.8339,-2.8338,-2.8339,-2.8343,-2.8341,-2.8341,-2.8341,-2.8341,-2.8342,-2.8339,-2.8338,-2.8335,-2.8335,-2.8333,-2.8334,-2.8333,-2.833,-2.833,-2.833,-2.833,-2.833,-2.8333,-2.8333,-2.8333,-2.8333,0,-2.8328,-2.8328,-2.8326,-2.8329,-2.833,-2.8328,-2.8331,-2.8331,-2.8333,-2.8335,-2.8333,-2.8333,-2.8332,-2.8331,-2.8331,-2.8329,-2.833,-2.8331,-2.8332,-2.833,-2.833,-2.8329,-2.8333,-2.8333,-2.8333,-2.8333,0,0,-2.8313,-2.8321,-2.832,-2.8322,-2.8326,-2.8325,-2.8325,-2.8326,-2.8327,-2.8327,-2.8327,-2.8325,-2.8327,-2.8326,-2.8327,-2.8326,-2.8325,-2.8328,-2.8328,-2.8328,-2.8324,-2.8324,-2.8324,-2.8326,-2.8326,-2.8326,-2.8325,0,-2.8306,-2.8307,-2.8311,-2.8311,-2.8312,-2.8317,-2.8317,-2.8319,-2.8321,-2.8321,-2.8323,-2.8322,-2.8324,-2.8324,-2.8324,-2.8325,-2.8325,-2.8325,-2.8326,-2.8326,-2.8327,-2.8324,-2.8323,-2.8322,-2.8325,-2.8325,-2.8325,0,-2.8297,-2.83,-2.83,-2.8307,-2.8307,-2.8307,-2.831,-2.8311,-2.8314,-2.8315,-2.8316,-2.8319,-2.8319,-2.8321,-2.8321,-2.8322,-2.8322,-2.8323,-2.8323,-2.8323,-2.8325,-2.8325,-2.8322,-2.8322,-2.8325,-2.8325,-2.8325,0,-2.8288,-2.8292,-2.8293,-2.8295,-2.8302,-2.8302,-2.8305,-2.8308,-2.8309,-2.8312,-2.8313,-2.8314,-2.8315,-2.8316,-2.8319,-2.832,-2.832,-2.8321,-2.8321,-2.8322,-2.8321,-2.8321,-2.8319,-2.832,-2.832,-2.832,-2.832,0,-2.8279,-2.8279,-2.8289,-2.829,-2.8291,-2.8297,-2.8297,-2.83,-2.8304,-2.8305,-2.8309,-2.831,-2.8314,-2.8316,-2.8318,-2.8319,-2.8319,-2.832,-2.8321,-2.832,-2.832,-2.8321,-2.8321,-2.832,-2.832,-2.832,-2.832,0,-2.8269,-2.8275,-2.8277,-2.8285,-2.8287,-2.8288,-2.8294,-2.8295,-2.8299,-2.8301,-2.8302,-2.8307,-2.8309,-2.8313,-2.8315,-2.8317,-2.8318,-2.8318,-2.8318,-2.8318,-2.8319,-2.8319,-2.8317,-2.8318,-2.8318,-2.8318,-2.8318,0,-2.8263,-2.8264,-2.8273,-2.8276,-2.8279,-2.8282,-2.8285,-2.8291,-2.8294,-2.8299,-2.83,-2.8303,-2.8306,-2.831,-2.8313,-2.8316,-2.8317,-2.8316,-2.8317,-2.8318,-2.8319,-2.8319,-2.832,-2.8316,-2.8316,-2.8316,-2.8316,0,-2.8253,-2.8258,-2.8262,-2.8268,-2.8272,-2.8277,-2.8281,-2.8283,-2.829,-2.8293,-2.8297,-2.8299,-2.8304,-2.8308,-2.8312,-2.8313,-2.8316,-2.8316,-2.8316,-2.8316,-2.8316,-2.8318,-2.8318,-2.8316,-2.8316,-2.8316,-2.8316,-2.8316,-2.8246,-2.8248,-2.8256,-2.8261,-2.8267,-2.8272,-2.8274,-2.828,-2.8284,-2.8289,-2.8293,-2.8297,-2.8302,-2.8308,-2.8311,-2.8314,-2.8315,-2.8315,-2.8315,-2.8315,-2.8316,-2.8316,-2.8314,-2.8314,-2.8314,-2.8314,-2.8314,0,-2.8238,-2.8244,-2.8249,-2.8257,-2.8262,-2.8267,-2.8273,-2.8276,-2.8281,-2.8286,-2.829,-2.8296,-2.83,-2.8306,-2.831,-2.8312,-2.8314,-2.8313,-2.8313,-2.8314,-2.8314,-2.8314,-2.8312,-2.8312,-2.8312,-2.8312,-2.8312,-2.8312,-2.8234,-2.8239,-2.8244,-2.8252,-2.8258,-2.8264,-2.8268,-2.8273,-2.8278,-2.8285,-2.8289,-2.8293,-2.8299,-2.8305,-2.831,-2.8311,-2.8313,-2.8312,-2.8314,-2.8314,-2.8314,-2.8314,-2.8314,-2.8312,-2.8312,-2.8314,-2.8314,-2.8314]}]]